When you browse on this site, cookies collect data to enhance your experience and personalize the content and advertising you see.
Visit our Privacy Policy to learn more. By continuing to use the site, you agree to this use of cookies and data.
  • In Denmark
  • List of Countries
  • For 7 days
  • Water Temperature
  • Weather Map
  • Weather Widgets
  • user-avatar
    Login

    Hourly Weather Reykjavík

    Today, 8 December, Sunday

    Time Temperature Precipitation Wind Pressure Humidity
    00:00 -11°C° 0 mm 7 mps 738 mmHg 69%
    01:00 -12°C° 0 mm 7 mps 738 mmHg 71%
    02:00 -12°C° 0 mm 7 mps 738 mmHg 73%
    03:00 -12°C° 0 mm 7 mps 738 mmHg 74%
    04:00 -10°C° 0 mm 6 mps 739 mmHg 75%
    05:00 -9°C° 0 mm 7 mps 739 mmHg 74%
    06:00 -9°C° 0 mm 7 mps 740 mmHg 76%
    07:00 -8°C° 0 mm 7 mps 741 mmHg 77%
    08:00 -8°C° 0 mm 7 mps 742 mmHg 79%
    09:00 -8°C° 0 mm 7 mps 743 mmHg 82%
    10:00 -6°C° 0 mm 6 mps 744 mmHg 84%
    11:00 -6°C° 0 mm 6 mps 745 mmHg 87%
    12:00 -6°C° 0 mm 6 mps 746 mmHg 86%
    13:00 -6°C° 0 mm 6 mps 748 mmHg 85%
    14:00 -6°C° 0 mm 6 mps 749 mmHg 85%
    15:00 -6°C° 0 mm 5 mps 749 mmHg 85%
    16:00 -6°C° 0 mm 5 mps 750 mmHg 86%
    17:00 -7°C° 0 mm 4 mps 751 mmHg 86%
    18:00 -7°C° 0 mm 4 mps 751 mmHg 85%
    19:00 -6°C° 0 mm 3 mps 752 mmHg 84%
    20:00 -7°C° 0 mm 3 mps 752 mmHg 83%
    21:00 -7°C° 0 mm 3 mps 752 mmHg 80%
    22:00 -7°C° 0 mm 3 mps 752 mmHg 78%
    23:00 -6°C° 0 mm 2 mps 752 mmHg 75%

    Tomorrow, 9 December, Monday

    Time Temperature Precipitation Wind Pressure Humidity
    00:00 -7°C° 0 mm 3 mps 752 mmHg 72%
    01:00 -7°C° 0 mm 3 mps 752 mmHg 69%
    02:00 -8°C° 0 mm 4 mps 752 mmHg 66%
    03:00 -7°C° 0.1 mm 5 mps 751 mmHg 74%
    04:00 -8°C° 0.1 mm 6 mps 750 mmHg 83%
    05:00 -7°C° 0.1 mm 8 mps 749 mmHg 91%
    06:00 -7°C° 0.3 mm 8 mps 748 mmHg 92%
    07:00 -8°C° 0.3 mm 9 mps 747 mmHg 92%
    08:00 -8°C° 0.3 mm 10 mps 745 mmHg 93%
    09:00 -5°C° 2.1 mm 9 mps 744 mmHg 94%
    10:00 -4°C° 2.1 mm 8 mps 743 mmHg 95%
    11:00 -2°C° 2.1 mm 7 mps 742 mmHg 96%
    12:00 -1°C° 0.8 mm 6 mps 741 mmHg 96%
    13:00 -1°C° 0.8 mm 6 mps 740 mmHg 95%
    14:00 0°C° 0.8 mm 5 mps 739 mmHg 94%
    15:00 0°C° 0.5 mm 5 mps 739 mmHg 93%
    16:00 0°C° 0.5 mm 4 mps 738 mmHg 92%
    17:00 0°C° 0.5 mm 4 mps 737 mmHg 91%
    18:00 -1°C° 0.2 mm 4 mps 736 mmHg 89%
    19:00 -1°C° 0.2 mm 4 mps 736 mmHg 88%
    20:00 -2°C° 0.2 mm 4 mps 735 mmHg 87%
    21:00 -2°C° 0.1 mm 4 mps 734 mmHg 90%
    22:00 -3°C° 0.1 mm 4 mps 734 mmHg 92%
    23:00 -3°C° 0.1 mm 4 mps 733 mmHg 95%

    Day after tomorrow, 10 December, Tuesday

    Time Temperature Precipitation Wind Pressure Humidity
    00:00 -3°C° 0.1 mm 4 mps 732 mmHg 94%
    01:00 -2°C° 0.1 mm 3 mps 731 mmHg 93%
    02:00 -2°C° 0.1 mm 3 mps 730 mmHg 91%
    03:00 -2°C° 0 mm 3 mps 728 mmHg 90%
    04:00 -4°C° 0 mm 3 mps 727 mmHg 89%
    05:00 -4°C° 0 mm 4 mps 726 mmHg 87%
    06:00 -4°C° 0 mm 4 mps 725 mmHg 88%
    07:00 -6°C° 0 mm 5 mps 724 mmHg 89%
    08:00 -6°C° 0 mm 5 mps 724 mmHg 90%
    09:00 -6°C° 0 mm 7 mps 722 mmHg 89%
    10:00 -5°C° 0 mm 9 mps 721 mmHg 89%
    11:00 -4°C° 0 mm 11 mps 720 mmHg 89%
    12:00 -5°C° 0.6 mm 13 mps 719 mmHg 91%
    13:00 -5°C° 0.6 mm 15 mps 719 mmHg 92%
    14:00 -4°C° 0.6 mm 18 mps 718 mmHg 94%
    15:00 -5°C° 0.6 mm 19 mps 718 mmHg 91%
    16:00 -5°C° 0.6 mm 20 mps 718 mmHg 88%
    17:00 -5°C° 0.6 mm 21 mps 718 mmHg 86%
    18:00 -6°C° 0.5 mm 22 mps 719 mmHg 86%
    19:00 -7°C° 0.5 mm 24 mps 720 mmHg 86%
    20:00 -7°C° 0.5 mm 25 mps 721 mmHg 86%
    21:00 -8°C° 0.5 mm 25 mps 722 mmHg 85%
    22:00 -8°C° 0.5 mm 24 mps 723 mmHg 84%
    23:00 -8°C° 0.5 mm 24 mps 724 mmHg 83%

    11 December, Wednesday

    Time Temperature Precipitation Wind Pressure Humidity
    00:00 -8°C° 0.2 mm 24 mps 726 mmHg 83%
    01:00 -8°C° 0.2 mm 23 mps 727 mmHg 83%
    02:00 -8°C° 0.2 mm 23 mps 728 mmHg 83%
    03:00 -9°C° 0.1 mm 21 mps 730 mmHg 82%
    04:00 -9°C° 0.1 mm 20 mps 732 mmHg 81%
    05:00 -10°C° 0.1 mm 19 mps 734 mmHg 81%
    06:00 -10°C° 0 mm 18 mps 734 mmHg 79%
    07:00 -11°C° 0 mm 16 mps 735 mmHg 78%
    08:00 -12°C° 0 mm 15 mps 736 mmHg 76%
    09:00 -12°C° 0 mm 15 mps 737 mmHg 77%
    10:00 -11°C° 0 mm 14 mps 738 mmHg 78%
    11:00 -11°C° 0 mm 14 mps 738 mmHg 79%
    12:00 -11°C° 0 mm 13 mps 739 mmHg 79%
    13:00 -12°C° 0 mm 11 mps 739 mmHg 80%
    14:00 -12°C° 0 mm 10 mps 740 mmHg 80%
    15:00 -11°C° 0 mm 9 mps 740 mmHg 82%
    16:00 -11°C° 0 mm 8 mps 740 mmHg 83%
    17:00 -11°C° 0 mm 8 mps 740 mmHg 85%
    18:00 -11°C° 0 mm 8 mps 740 mmHg 85%
    19:00 -11°C° 0 mm 8 mps 740 mmHg 85%
    20:00 -11°C° 0 mm 8 mps 740 mmHg 85%
    21:00 -11°C° 0 mm 8 mps 739 mmHg 86%
    22:00 -11°C° 0 mm 8 mps 739 mmHg 87%
    23:00 -11°C° 0 mm 7 mps 739 mmHg 87%

    12 December, Thursday

    Time Temperature Precipitation Wind Pressure Humidity
    00:00 -11°C° 0 mm 8 mps 738 mmHg 88%
    01:00 -12°C° 0 mm 8 mps 738 mmHg 88%
    02:00 -12°C° 0 mm 8 mps 738 mmHg 88%
    03:00 -12°C° 0 mm 8 mps 737 mmHg 87%
    04:00 -12°C° 0 mm 7 mps 737 mmHg 85%
    05:00 -12°C° 0 mm 7 mps 737 mmHg 84%
    06:00 -13°C° 0 mm 7 mps 737 mmHg 82%
    07:00 -13°C° 0 mm 7 mps 737 mmHg 80%
    08:00 -13°C° 0 mm 7 mps 737 mmHg 79%
    09:00 -12°C° 0 mm 7 mps 737 mmHg 75%
    10:00 -11°C° 0 mm 7 mps 737 mmHg 71%
    11:00 -11°C° 0 mm 7 mps 737 mmHg 67%
    12:00 -11°C° 0 mm 7 mps 737 mmHg 67%
    13:00 -9°C° 0 mm 6 mps 737 mmHg 67%
    14:00 -9°C° 0 mm 6 mps 737 mmHg 67%
    15:00 -10°C° 0 mm 6 mps 737 mmHg 67%
    16:00 -11°C° 0 mm 5 mps 738 mmHg 67%
    17:00 -11°C° 0 mm 5 mps 738 mmHg 68%
    18:00 -12°C° 0 mm 5 mps 738 mmHg 68%
    19:00 -12°C° 0 mm 5 mps 738 mmHg 68%
    20:00 -12°C° 0 mm 4 mps 739 mmHg 68%
    21:00 -12°C° 0 mm 4 mps 739 mmHg 67%
    22:00 -12°C° 0 mm 4 mps 739 mmHg 67%
    23:00 -12°C° 0 mm 4 mps 739 mmHg 66%

    13 December, Friday

    Time Temperature Precipitation Wind Pressure Humidity
    00:00 -12°C° 0 mm 4 mps 739 mmHg 65%
    01:00 -12°C° 0 mm 4 mps 739 mmHg 65%
    02:00 -12°C° 0 mm 4 mps 739 mmHg 64%
    03:00 -12°C° 0 mm 4 mps 739 mmHg 64%
    04:00 -12°C° 0 mm 4 mps 739 mmHg 64%
    05:00 -14°C° 0 mm 4 mps 739 mmHg 65%
    06:00 -14°C° 0 mm 4 mps 739 mmHg 65%
    07:00 -14°C° 0 mm 4 mps 739 mmHg 65%
    08:00 -14°C° 0 mm 4 mps 739 mmHg 66%
    09:00 -14°C° 0 mm 4 mps 739 mmHg 64%
    10:00 -14°C° 0 mm 4 mps 739 mmHg 62%
    11:00 -14°C° 0 mm 4 mps 739 mmHg 60%
    12:00 -14°C° 0 mm 4 mps 739 mmHg 60%
    13:00 -14°C° 0 mm 4 mps 739 mmHg 59%
    14:00 -14°C° 0 mm 4 mps 739 mmHg 59%
    15:00 -15°C° 0 mm 4 mps 739 mmHg 59%
    16:00 -15°C° 0 mm 5 mps 739 mmHg 58%
    17:00 -15°C° 0 mm 5 mps 739 mmHg 58%
    18:00 -17°C° 0 mm 5 mps 740 mmHg 58%
    19:00 -17°C° 0 mm 5 mps 740 mmHg 58%
    20:00 -18°C° 0 mm 5 mps 740 mmHg 58%
    21:00 -18°C° 0 mm 5 mps 740 mmHg 58%
    22:00 -17°C° 0 mm 4 mps 740 mmHg 58%
    23:00 -17°C° 0 mm 4 mps 740 mmHg 58%
    Show more